Theta_e
320 319 318 315 313 311 309 308 312 316 315 308 303 304 303 302 307 308 307 306 306 305 303 303 304 305 305 307 307 304 307 305 302 305 315 315 313 311 312 304 306 308 306 306
320 319 317 314 313 311 308 310 313 319 315 304 305 307 306 307 309 309 308 306 307 309 308 305 303 303 311 310 307 306 307 306 304 307 310 312 312 312 310 310 311 308 305 307
320 319 317 314 313 311 310 314 312 315 313 308 308 310 311 309 312 309 310 310 309 313 310 312 309 307 315 318 313 320 312 307 304 301 305 312 310 311 311 312 308 308 309 310
320 319 317 315 313 311 309 312 310 311 309 310 312 312 310 309 308 313 312 308 307 312 310 311 312 313 315 316 320 313 310 306 308 310 310 310 310 311 310 310 310 308 309 311
319 319 317 316 313 311 309 308 308 311 310 310 312 307 310 309 311 312 310 306 311 311 313 314 312 315 314 313 314 314 313 310 311 308 311 311 309 311 312 311 311 311 311 311
319 319 318 316 313 312 312 310 309 311 305 310 312 312 311 310 312 314 315 314 312 312 314 317 317 318 317 317 316 313 315 311 309 306 310 310 307 311 312 313 314 313 310 315
319 319 318 317 315 313 311 311 309 308 304 308 311 309 309 310 311 310 315 316 315 317 319 318 318 317 317 317 314 316 314 313 312 308 309 301 311 313 314 314 315 317 317 318
318 318 319 318 316 314 313 311 310 309 303 305 307 309 309 311 314 313 313 316 318 320 316 313 310 310 311 311 311 313 314 314 308 307 306 307 309 312 313 312 312 318 318 320
317 318 318 318 317 314 313 311 312 310 306 305 308 307 308 309 311 315 314 317 320 317 315 312 307 304 307 306 309 311 312 314 312 308 303 300 311 312 317 317 308 316 320 321
317 317 317 318 318 315 314 312 313 312 308 311 310 309 307 310 311 311 312 313 315 315 313 310 308 306 309 306 306 308 309 310 307 306 305 307 313 314 317 307 311 318 320 322
315 315 316 317 318 317 315 313 315 312 309 311 312 312 310 311 314 310 312 313 315 315 310 312 309 308 308 307 309 309 309 308 307 305 305 302 316 314 312 318 318 320 321 322
314 315 316 317 317 317 314 312 315 315 310 313 313 315 317 316 315 311 313 314 313 314 312 311 311 309 308 306 305 308 306 310 311 311 312 315 319 319 320 318 321 320 321 320
313 314 315 316 317 317 316 312 313 312 309 311 311 312 315 317 317 319 310 314 317 317 320 314 313 309 310 307 308 308 311 313 314 313 316 317 318 319 319 320 322 322 322 321
314 314 315 316 317 316 316 312 312 311 309 306 311 315 314 316 316 318 316 316 316 318 320 316 315 311 310 308 308 310 312 315 314 314 317 318 319 320 320 319 320 320 321 321
313 314 314 315 315 314 314 313 313 313 310 306 309 312 313 314 315 315 316 314 313 314 311 313 312 312 309 309 309 309 313 316 314 312 318 321 320 322 320 319 320 320 319 318
313 313 313 313 313 313 312 311 312 313 313 307 302 311 312 315 313 314 314 314 314 313 311 311 312 310 312 308 307 312 314 315 316 316 318 318 320 321 320 320 320 320 321 320
312 312 312 312 311 312 309 309 312 312 313 308 305 307 314 313 311 311 312 312 313 313 312 310 312 312 313 310 306 314 317 319 320 318 320 318 318 318 319 319 318 317 319 319
310 310 311 310 310 309 308 315 311 313 312 310 304 305 309 314 310 310 312 312 311 310 311 310 310 310 310 307 314 313 316 318 320 320 320 320 322 320 318 318 316 315 315 315
309 310 310 310 310 309 312 314 314 314 311 307 308 305 306 316 311 311 312 312 309 311 310 309 311 308 307 311 312 315 318 319 320 319 320 320 319 318 317 316 316 316 315 314
308 309 310 309 312 316 315 313 310 309 310 310 305 309 308 311 311 309 312 311 310 307 309 311 308 308 313 319 319 320 319 318 321 319 319 319 318 317 317 316 317 319 318 315
310 308 308 311 313 313 311 307 306 307 305 307 308 307 306 311 309 310 311 310 310 306 308 308 308 309 316 319 318 319 319 321 322 322 322 321 322 321 318 317 317 318 317 315
302 302 305 309 310 307 305 305 307 306 306 311 309 311 309 311 313 313 313 310 310 305 316 311 308 315 317 320 321 323 325 324 322 324 320 321 322 320 321 320 319 319 318 317
308 306 306 307 307 297 301 299 303 304 309 313 313 310 311 311 313 312 313 307 306 313 309 308 314 318 320 321 323 322 324 322 321 322 322 322 321 323 320 319 320 319 318 315
303 303 293 301 301 303 305 305 305 310 310 312 313 311 310 311 309 311 307 310 310 304 303 305 315 316 318 319 321 322 321 321 320 320 321 321 321 320 321 321 322 323 322 319
303 305 295 301 306 308 308 310 309 312 314 313 313 312 311 308 308 309 307 304 301 304 305 311 315 317 319 319 319 319 319 320 319 320 320 320 321 321 322 321 322 321 321 321
305 305 304 307 306 306 308 309 310 314 313 315 312 307 306 303 305 304 302 302 301 306 311 315 318 318 318 318 318 319 320 320 320 320 320 321 320 320 320 321 322 322 322 322
303 302 307 308 308 306 307 312 309 315 313 308 307 303 302 307 304 302 305 304 307 309 314 319 320 317 316 316 316 318 321 322 322 321 322 322 322 322 321 321 324 322 322 322
Wind_Speed
13 15 19 20 22 26 3 3 2 3 3 1 1 2 3 2 5 4 7 4 8 6 8 7 8 10 3 7 12 11 6 2 3 1 5 2 1 2 6 5 5 0 3 4
12 15 16 18 22 18 5 3 2 2 3 2 1 2 4 4 4 5 3 3 6 4 5 4 7 7 3 9 11 12 11 5 3 6 5 3 5 4 1 5 2 7 4 2
11 14 15 17 19 16 2 2 1 1 2 1 1 2 2 5 4 6 5 4 3 4 4 2 7 7 4 5 6 4 7 5 8 8 2 1 5 6 6 5 4 5 6 4
11 13 15 18 19 14 2 3 3 2 0 2 2 2 2 4 4 4 4 3 7 5 5 4 5 4 6 4 7 4 7 6 4 2 1 2 2 6 9 5 2 6 4 5
9 11 14 17 20 14 2 3 3 2 2 3 3 2 1 4 5 4 2 3 8 6 4 4 10 7 4 3 5 4 1 4 5 4 2 5 5 5 10 7 3 10 8 9
9 10 12 14 16 12 3 2 0 2 1 3 2 1 2 3 7 5 12 12 7 2 2 3 5 7 8 5 6 5 5 7 6 5 1 4 5 12 11 5 5 5 6 1
8 9 10 12 11 8 1 1 2 2 2 2 2 5 6 9 7 6 8 8 3 3 6 8 10 11 11 11 9 5 8 6 0 4 5 6 3 2 3 10 6 12 6 3
8 9 9 10 10 9 2 0 2 2 3 3 5 6 5 10 4 3 4 5 5 1 3 2 4 1 3 6 7 6 4 3 5 5 6 3 2 5 5 8 4 11 13 7
8 9 10 9 10 8 1 1 1 2 3 2 4 5 4 4 6 3 1 1 4 1 0 2 3 4 2 2 3 5 6 5 1 3 4 7 0 3 3 5 4 1 6 9
8 10 11 10 10 8 3 2 2 2 3 3 2 2 4 3 2 4 4 8 4 1 1 3 1 3 1 4 4 4 2 2 4 4 4 3 3 3 6 5 2 3 4 8
8 10 10 10 10 7 4 2 2 3 3 9 6 4 4 2 0 3 6 4 1 2 3 1 2 1 2 2 1 2 5 5 3 3 3 5 5 5 5 3 3 2 5 6
9 9 9 9 9 7 2 2 1 2 4 6 3 9 12 11 8 3 1 3 2 2 2 1 2 2 2 1 3 1 4 2 1 5 0 3 1 3 2 1 4 5 9 10
8 9 10 10 10 6 3 3 2 2 3 6 5 3 2 7 14 13 3 2 1 2 1 2 2 2 2 2 2 2 2 3 2 3 4 3 3 2 2 3 4 8 10 12
8 9 10 11 9 6 4 2 1 2 2 4 4 3 4 1 6 15 16 2 2 3 1 1 2 1 2 0 2 2 2 5 4 3 3 4 4 4 4 6 9 12 11 10
8 9 11 11 10 8 6 5 4 4 3 4 7 13 2 5 5 10 13 9 3 2 1 1 0 2 3 1 1 3 5 3 3 1 1 2 0 7 8 12 14 13 13 9
9 10 11 11 10 10 3 2 2 4 4 3 5 4 4 5 3 8 9 7 4 2 2 0 1 1 3 2 2 2 4 4 5 1 2 1 2 6 8 11 12 10 10 10
11 12 12 10 8 3 3 3 3 5 3 3 5 5 1 3 2 3 3 4 2 1 1 2 1 2 2 2 3 2 3 4 5 4 5 3 7 5 9 10 10 9 9 7
13 14 14 13 11 7 5 2 14 3 2 2 3 4 3 4 1 3 1 3 1 1 0 1 2 2 1 4 6 4 2 2 5 5 3 3 8 10 10 11 11 11 10 9
15 17 16 2 2 2 2 6 10 5 3 3 2 3 1 4 2 1 2 0 3 1 2 2 2 2 4 2 5 5 3 1 5 3 6 7 8 10 11 11 11 11 9 8
19 3 3 2 1 5 9 3 3 4 3 3 4 1 3 2 1 2 1 1 1 3 2 2 3 2 3 4 8 6 5 2 5 1 3 4 4 8 11 13 10 9 9 9
0 1 1 4 6 3 2 2 3 3 3 4 3 5 3 1 2 1 1 1 1 3 3 3 2 2 3 8 5 2 3 4 1 1 3 3 2 7 9 9 9 9 8 9
4 3 4 3 3 2 3 2 2 4 3 3 3 1 4 2 1 2 1 1 2 2 2 3 3 3 2 4 7 8 8 11 13 12 9 8 6 2 4 6 7 8 5 2
2 3 3 3 3 2 4 4 3 3 2 2 1 2 2 2 3 2 1 1 1 1 3 1 3 4 2 4 4 6 6 9 12 13 11 11 11 9 3 2 1 6 8 7
2 3 2 4 4 3 2 2 1 2 3 4 2 2 2 1 3 2 3 2 1 3 3 1 4 3 3 4 3 5 10 12 11 8 7 10 8 6 7 6 3 4 5 1
2 1 2 3 1 2 1 0 1 3 4 3 2 2 2 1 3 2 4 1 2 2 2 4 2 4 4 6 7 9 9 8 7 6 7 7 7 7 6 7 5 3 2 2
3 1 1 1 1 2 1 2 1 5 5 2 2 1 1 2 2 2 2 2 0 3 2 3 4 6 5 5 5 5 3 4 5 4 4 5 6 6 5 6 5 4 5 5
1 2 2 1 1 1 1 1 2 3 4 3 2 4 3 2 2 3 3 4 3 2 1 2 4 5 4 5 5 5 6 8 6 6 5 5 5 5 5 7 6 6 6 6
Wind_Direction
324 331 344 346 345 338 25 322 103 35 282 111 360 199 211 269 274 195 252 256 241 216 175 169 196 206 259 152 147 171 178 124 246 303 139 81 276 174 191 236 182 198 311 279
330 337 340 346 350 357 324 20 336 83 304 151 129 267 263 260 258 235 216 252 216 188 173 185 204 196 168 155 160 160 169 207 148 151 153 167 224 152 146 111 128 187 212 277
336 342 340 344 345 354 298 297 144 83 71 14 313 341 276 282 244 259 246 266 189 163 156 195 177 169 152 157 195 119 153 151 203 214 150 92 175 181 190 270 199 145 234 299
339 346 348 343 345 351 283 360 62 12 14 132 317 276 316 301 305 243 242 218 227 184 142 151 171 158 138 95 146 104 203 184 174 90 190 193 169 189 176 209 157 266 10 226
344 353 353 351 349 344 62 3 353 356 298 292 283 160 229 302 313 278 282 252 352 207 182 194 178 155 193 166 167 129 125 155 154 149 165 183 164 167 184 218 219 257 260 267
353 359 360 358 2 352 23 42 204 286 2 329 260 157 332 298 333 260 257 299 295 141 337 1 81 90 82 110 142 123 150 146 180 183 213 191 208 205 193 195 196 228 241 357
356 1 2 359 15 34 339 357 295 302 295 280 282 320 309 290 301 271 304 331 265 50 111 118 95 83 96 85 71 85 141 128 347 125 189 201 61 17 258 229 242 217 252 205
1 1 360 0 4 18 329 313 301 333 296 302 289 327 303 307 314 208 260 349 341 330 334 108 101 59 161 67 43 66 84 144 118 162 211 340 239 182 175 196 223 222 235 181
0 359 1 360 355 10 348 278 247 305 309 195 289 320 331 335 336 334 149 15 318 26 16 104 145 163 104 163 114 70 75 72 308 164 205 236 172 143 205 204 254 24 218 184
1 359 358 358 350 8 352 293 240 274 280 263 193 275 330 311 298 296 323 342 347 296 73 80 134 123 319 167 182 162 132 65 211 166 220 253 250 227 178 201 31 50 201 181
2 358 355 349 343 359 4 308 236 310 285 278 226 237 212 235 231 358 334 276 139 355 72 143 120 137 120 213 102 184 194 174 169 149 191 219 166 152 218 65 100 117 132 162
353 351 347 341 342 354 25 297 25 335 246 285 293 257 255 252 248 311 278 321 298 1 64 79 116 154 174 182 189 119 215 260 285 236 227 27 268 293 14 214 139 154 144 145
341 338 343 336 338 349 351 295 320 260 279 275 278 239 114 223 234 227 236 218 225 176 318 110 87 193 192 188 175 216 183 168 226 221 171 246 279 230 200 190 130 140 142 144
326 330 334 332 335 340 325 258 145 296 299 290 288 341 289 275 183 200 213 49 93 82 171 115 96 291 224 157 24 267 40 170 167 250 256 269 231 223 149 127 126 128 129 139
324 332 328 331 335 324 300 258 226 224 284 304 294 310 285 289 201 193 202 217 275 320 251 222 65 113 190 113 249 242 188 166 218 332 354 323 112 159 149 146 144 142 133 130
335 327 324 325 328 329 292 219 158 191 202 274 293 343 283 347 101 160 169 190 209 249 271 303 166 44 261 207 233 277 222 217 245 3 24 69 45 132 150 136 140 144 143 147
328 320 317 313 318 304 259 348 33 163 197 255 291 304 323 315 150 113 130 158 151 248 137 229 263 163 247 185 244 277 229 258 243 209 157 132 181 170 158 142 132 120 115 125
316 314 312 307 294 263 275 235 197 162 265 254 286 279 284 4 142 127 12 133 142 89 204 169 213 148 269 247 243 252 239 147 106 139 281 306 130 136 139 136 138 139 143 142
303 305 303 270 185 213 59 29 142 181 300 294 250 286 36 353 51 60 124 280 194 87 225 188 211 149 224 308 321 311 229 177 154 93 103 122 134 144 148 152 162 159 159 165
303 266 221 189 110 330 144 222 159 179 199 223 254 282 265 311 357 103 165 39 146 213 114 153 223 227 333 337 293 268 269 357 136 90 97 109 128 165 175 188 183 176 173 176
238 342 273 349 317 197 216 194 222 159 229 194 236 227 283 144 286 108 338 134 156 236 122 242 186 189 9 351 24 27 146 127 100 22 43 119 121 190 189 196 197 199 183 198
319 304 278 271 221 184 222 203 172 221 253 182 223 221 214 257 238 241 149 203 196 237 136 223 207 96 7 31 47 58 79 80 63 51 44 34 36 33 209 221 219 223 229 180
217 204 223 193 182 159 211 194 192 231 204 211 254 234 235 177 218 97 175 235 16 264 222 250 58 101 6 348 6 52 63 80 65 48 44 54 52 39 9 243 187 198 216 209
233 182 193 203 172 230 189 197 239 349 283 322 310 245 222 157 168 178 69 41 268 289 237 41 80 64 341 337 354 97 74 73 81 81 65 48 43 39 45 37 354 281 275 304
253 228 179 206 12 261 327 355 258 24 312 296 251 225 255 89 129 20 99 249 224 234 25 33 44 68 61 57 51 53 48 53 65 60 56 45 31 26 28 20 4 7 11 356
243 237 246 228 236 60 57 13 42 4 342 272 248 89 82 56 46 128 73 206 95 43 20 108 112 72 46 19 13 29 66 65 360 1 19 13 16 5 344 331 342 350 353 342
54 223 244 284 24 352 337 48 338 320 7 11 2 40 27 290 106 86 17 18 351 357 12 101 76 85 51 19 339 355 347 5 345 331 354 334 325 321 315 315 327 318 303 294